Probability
1 1 0 0 0 0 0 0 0 0 0 0 0 0 0 0 0 0 0 0 0 0 0 0 0 0 0 0 0 0 0 0 0 0 0 0 0 0 0 0 0 0 0 0 0 0 0 0 0
1 0 0 0 0 0 0 0 0 0 0 0 0 0 0 0 0 0 0 0 0 0 0 0 0 0 0 0 0 0 0 0 0 0 0 0 0 0 0 0 0 0 0 0 0 0 0 0 0
2 1 0 0 0 0 0 0 0 0 0 0 0 0 0 1 1 0 0 0 0 0 0 0 0 0 0 0 0 0 0 0 0 0 0 0 0 0 0 0 0 0 0 0 0 0 0 0 0
4 2 0 0 0 0 0 0 0 0 0 0 0 1 5 9 9 7 5 3 0 0 0 0 0 0 0 0 0 0 0 0 0 0 0 0 0 0 0 0 0 0 0 0 0 0 0 0 0
8 3 0 0 0 0 0 0 0 0 0 0 0 6 19 28 28 24 18 9 2 0 0 0 0 0 0 0 0 0 0 0 0 0 0 0 0 0 0 0 0 0 0 0 0 0 0 0 0
9 4 0 0 0 0 0 0 0 0 1 2 4 17 38 50 50 46 35 18 5 1 0 0 0 0 0 0 0 0 0 0 0 0 0 0 0 0 0 0 0 0 0 0 0 0 0 0 0
7 3 0 0 0 0 0 0 0 0 2 7 15 32 54 66 66 63 52 31 12 2 0 0 0 0 0 0 0 0 0 0 0 0 0 0 0 0 0 0 0 0 0 0 0 0 0 0 0
6 2 0 0 0 0 0 0 0 0 2 12 26 43 61 70 71 72 66 48 26 10 5 4 2 0 0 0 0 0 0 0 0 0 0 0 0 0 0 0 0 0 0 0 0 0 0 0 0
5 2 0 0 0 0 0 0 0 0 3 12 26 43 59 68 70 70 65 55 40 25 18 13 6 1 0 0 0 0 0 0 0 0 0 0 0 0 0 0 0 0 0 0 0 0 0 0 0
3 1 0 0 0 0 0 0 0 0 2 8 16 33 55 68 68 61 51 44 38 34 34 28 16 6 2 0 0 0 0 0 0 0 0 0 0 0 0 0 0 0 0 0 0 0 0 0 0
1 0 0 0 0 0 0 0 0 0 1 3 8 26 52 66 64 54 40 31 27 29 36 37 27 14 5 0 0 0 0 0 0 0 0 0 0 0 0 0 0 0 0 0 0 0 0 0 0
0 0 0 0 0 0 0 0 0 0 0 1 4 19 43 58 59 53 40 27 22 22 26 30 28 20 10 3 0 0 0 0 0 0 0 0 0 0 0 0 0 0 0 0 0 0 0 0 0
0 0 0 0 0 0 0 0 0 0 1 3 5 12 29 44 51 50 42 31 22 18 18 20 22 20 14 7 1 0 0 0 0 0 0 0 0 0 0 0 0 0 0 0 0 0 0 0 0
0 0 0 0 0 0 0 0 0 0 2 5 7 10 18 28 37 40 38 31 24 18 15 15 15 15 13 8 2 0 0 0 0 0 0 0 0 0 0 0 0 0 0 0 0 0 0 0 0
0 0 0 0 0 0 0 0 0 0 1 4 6 7 8 14 21 27 29 27 22 18 14 11 9 9 9 6 3 2 1 0 0 0 0 0 0 0 0 0 0 0 0 0 0 0 0 0 0
0 0 0 0 0 0 0 0 0 0 0 1 2 2 3 5 10 14 17 19 18 15 11 6 5 5 5 5 5 3 1 0 0 0 0 0 0 0 0 0 0 0 0 0 0 0 0 0 0
0 0 0 0 0 0 0 0 0 0 0 0 0 0 1 2 3 5 8 12 12 10 7 5 2 1 3 5 5 3 1 0 0 0 0 0 0 0 0 0 0 0 0 0 0 0 0 0 0
0 0 0 0 0 0 0 0 0 0 0 0 0 0 0 0 0 1 3 6 7 6 5 4 2 1 3 7 8 5 3 3 3 1 0 0 0 0 0 0 0 0 0 0 0 0 0 0 0
0 0 0 0 0 0 0 0 0 0 0 0 0 0 0 0 0 0 1 2 3 4 4 4 2 1 4 10 12 11 10 9 7 4 2 1 1 1 0 0 0 0 0 0 0 0 0 0 0
0 0 0 0 0 0 0 0 0 0 0 0 0 0 0 0 0 0 0 0 1 2 3 3 2 1 3 8 12 12 12 11 8 4 2 2 2 1 0 0 0 0 0 0 0 0 0 0 0
0 0 0 0 0 0 0 0 0 0 0 0 0 0 0 0 0 0 0 0 0 1 1 1 1 0 1 4 7 8 8 8 5 3 2 1 1 1 0 0 0 0 0 0 0 0 0 0 0
0 0 0 0 0 0 0 0 0 0 0 0 0 0 0 0 0 0 0 0 0 0 0 0 0 0 1 2 3 3 4 4 2 1 2 1 0 0 0 0 0 0 0 0 0 0 0 0 0
0 0 0 0 0 0 0 0 0 0 0 0 0 0 0 0 0 0 0 0 0 0 0 0 0 0 0 1 1 1 1 1 1 1 1 0 0 0 0 0 0 0 0 0 0 0 0 0 0
0 0 0 0 0 0 0 0 0 0 0 0 0 0 0 0 0 0 0 0 0 0 0 0 0 0 0 0 0 0 0 1 1 1 1 0 0 0 0 0 0 0 0 0 0 0 0 0 0
0 0 0 0 0 0 0 0 0 0 0 0 0 0 0 0 0 0 0 0 0 0 0 0 0 0 0 0 0 0 0 1 2 2 1 0 0 0 0 0 0 0 0 0 0 0 0 0 0
0 0 0 0 0 0 0 0 0 0 0 0 0 0 0 0 0 0 0 0 0 0 0 0 0 0 0 0 0 0 0 0 1 1 1 0 0 0 0 0 0 0 0 0 0 0 0 0 0
0 0 0 0 0 0 0 0 0 0 0 0 0 0 0 0 0 0 0 0 0 0 0 0 0 0 0 0 0 0 0 0 0 0 0 0 0 0 0 0 0 0 0 0 0 0 0 0 0
0 0 0 0 0 0 0 0 0 0 0 0 0 0 0 0 0 0 0 0 0 0 0 0 0 0 0 0 0 0 0 0 0 0 0 0 0 0 0 0 0 0 0 0 0 0 0 0 0
0 0 0 0 0 0 0 0 0 0 0 0 0 0 0 0 0 0 0 0 0 0 0 0 0 0 0 0 0 0 0 0 0 0 0 0 0 0 0 0 0 0 0 0 0 0 0 0 0
0 0 0 0 0 0 0 0 0 0 0 0 0 0 0 0 0 0 0 0 0 0 0 0 0 0 0 0 0 0 0 0 0 0 0 0 0 0 0 0 0 0 0 0 0 0 0 0 0
Wind_Speed
4 4 3 3 5 7 11 7 4 4 4 1 1 3 4 3 3 5 6 14 15 17 16 17 14 14 14 14 13 12 11 10 9 9 10 11 11 12 12 12 13 13 13 14 14 14 14 13 13
3 2 3 4 8 11 12 8 7 5 2 1 2 3 3 3 5 6 8 13 16 17 15 16 15 14 15 14 13 12 11 10 9 9 10 10 11 12 12 13 13 13 13 13 13 12 12 11 11
2 2 4 5 9 13 10 7 5 2 2 4 3 1 1 4 4 6 9 15 16 16 14 15 14 15 15 14 13 12 11 10 8 8 10 10 11 12 12 12 13 13 12 12 12 11 11 10 10
3 3 4 8 13 10 5 4 2 3 4 4 3 5 4 4 2 6 12 15 17 16 14 16 14 15 15 14 13 12 11 10 8 8 9 9 10 12 12 12 12 11 11 11 11 10 10 10 9
3 4 9 11 13 8 4 2 1 3 5 4 4 4 5 4 2 9 14 15 16 15 14 16 15 15 14 13 12 11 10 10 8 9 10 10 11 11 11 11 10 10 10 9 9 9 9 9 8
5 6 11 15 15 9 6 3 2 3 4 4 4 5 5 3 6 11 13 13 14 13 13 15 15 14 13 13 12 10 10 9 8 8 9 10 10 11 10 9 9 8 8 8 8 8 7 7 7
8 10 15 18 14 10 6 4 3 3 4 3 1 4 5 5 7 10 11 12 12 12 12 13 14 13 13 11 10 10 9 7 7 8 9 9 9 9 9 8 7 7 6 6 6 6 6 6 6
6 8 16 16 15 11 6 4 1 1 4 4 2 3 6 6 8 9 10 11 11 11 11 11 12 12 12 11 10 9 8 7 7 8 9 9 8 7 7 6 6 5 4 4 4 4 4 4 4
8 10 16 17 15 11 7 5 3 2 5 5 5 4 3 10 9 10 10 10 11 10 10 10 10 10 10 9 10 9 8 7 8 8 8 6 5 6 6 5 4 3 3 2 2 2 3 2 4
11 14 19 13 10 9 8 5 5 6 7 5 5 6 6 10 10 10 11 12 13 12 11 9 9 9 9 7 8 6 6 7 6 6 7 4 3 2 2 6 2 2 1 2 1 1 3 5 3
12 16 15 10 7 7 8 5 3 6 5 4 4 4 8 9 9 9 10 11 11 12 10 9 9 9 8 6 5 4 4 4 5 5 5 4 3 3 3 3 4 4 4 4 4 5 4 3 2
13 13 12 9 6 6 7 6 4 3 5 4 4 4 7 8 8 8 9 9 9 10 10 9 8 8 8 6 5 5 4 4 4 5 5 4 3 3 3 3 3 3 3 3 3 3 4 4 5
14 12 11 9 7 5 5 5 4 5 5 5 6 6 5 5 6 6 7 7 8 9 10 10 9 8 7 6 4 4 4 4 4 4 5 5 4 4 3 3 3 4 3 4 4 4 4 5 5
12 10 11 10 8 5 6 5 6 6 5 3 3 4 3 3 4 5 6 8 8 9 9 9 9 9 8 7 6 5 4 4 4 4 5 6 4 4 4 4 4 4 4 4 5 6 5 5 5
10 11 10 9 9 6 6 11 12 9 7 5 3 2 2 2 4 6 7 8 9 8 8 9 8 8 8 8 7 5 4 4 4 4 5 6 6 5 5 5 4 5 5 6 5 6 5 5 6
12 12 12 10 10 8 10 17 16 8 8 9 7 4 2 2 3 4 5 6 7 8 8 8 7 8 9 7 7 5 5 5 4 4 4 6 7 6 5 5 5 5 5 5 5 5 6 6 6
11 15 17 11 12 9 13 14 11 6 9 12 11 8 5 4 3 3 3 5 6 8 8 8 8 8 8 7 6 5 4 4 4 4 4 5 6 7 6 5 5 6 5 5 5 6 6 7 7
16 16 17 14 12 14 16 15 8 6 9 13 13 11 9 7 5 3 3 4 5 6 7 8 8 8 7 6 5 4 4 4 3 3 3 4 4 6 6 5 7 6 5 5 6 7 6 6 7
12 13 14 11 10 14 17 17 12 9 10 13 14 13 12 10 6 3 4 4 5 6 7 7 7 7 6 5 5 4 4 4 4 3 3 4 4 4 5 5 6 5 6 7 7 6 7 6 5
12 13 12 8 8 10 11 13 12 12 13 14 15 16 15 12 8 6 5 5 6 6 7 7 6 6 5 4 3 2 2 2 2 1 1 2 3 3 3 5 5 5 5 7 7 6 5 4 4
11 13 11 9 8 6 6 10 15 15 15 15 16 16 16 13 12 9 7 7 6 7 6 5 5 5 4 4 3 2 2 2 3 2 1 1 2 2 3 4 4 5 5 5 6 6 7 6 5
9 9 9 11 11 6 9 8 12 15 16 17 18 17 17 15 13 10 9 8 8 6 5 5 5 5 4 4 4 5 4 4 2 1 1 1 1 2 2 3 4 4 4 5 6 6 5 7 6
5 7 8 9 8 5 8 8 7 11 16 19 19 18 18 16 14 12 11 9 8 7 6 6 6 5 4 3 3 4 3 2 2 2 2 1 1 2 3 3 3 3 3 4 5 5 6 5 6
8 10 7 4 5 8 11 10 8 8 14 15 16 16 16 15 12 11 9 8 8 8 7 7 7 6 4 4 3 3 3 3 3 3 2 1 0 1 3 3 3 3 3 4 4 5 5 5 6
9 11 6 6 7 7 6 9 9 5 7 10 11 12 12 12 12 11 11 12 11 10 9 8 8 7 5 5 4 3 3 2 2 2 1 1 1 1 3 3 3 3 3 4 4 3 3 4 4
10 9 5 6 8 5 6 9 6 4 4 6 7 7 7 9 10 11 12 12 11 11 10 9 8 7 6 5 4 3 3 1 1 1 0 0 1 1 3 3 3 3 4 3 3 2 2 2 2
8 5 1 1 2 4 6 5 7 6 6 5 5 6 7 7 8 10 11 11 11 11 10 9 9 8 6 5 5 4 3 2 2 1 1 1 1 1 2 2 3 3 4 3 3 2 2 2 2
1 5 4 4 5 6 5 6 4 2 1 2 3 4 4 4 6 8 9 11 10 10 9 8 8 7 7 6 4 3 3 3 2 1 1 1 1 1 1 2 2 3 3 3 3 3 3 4 4
6 5 4 3 3 4 3 2 1 1 2 4 5 5 4 3 5 7 9 10 10 9 9 8 8 7 7 6 5 4 4 3 3 2 2 1 1 1 1 2 2 3 3 3 3 4 4 5 5
5 7 7 5 5 4 3 1 3 2 2 4 4 3 2 2 5 8 9 10 10 10 9 8 8 7 7 6 5 5 4 4 3 3 3 2 2 2 2 2 3 3 3 4 4 5 5 5 6
Wind_Direction
308 311 275 236 212 216 217 192 201 181 190 217 266 231 210 176 174 89 110 152 144 151 151 150 148 145 139 130 124 120 115 112 113 113 111 108 103 96 90 87 85 84 84 85 85 85 84 83 82
297 285 230 222 222 211 204 195 196 183 145 145 167 202 189 114 50 94 144 150 150 150 153 154 142 142 136 131 127 123 119 117 117 116 114 110 106 99 93 89 87 85 85 86 85 85 84 82 80
245 258 224 209 221 220 197 189 193 189 203 198 168 164 76 77 95 130 148 154 152 150 153 140 142 140 136 133 131 127 123 122 121 119 119 113 107 103 97 93 91 89 90 89 88 86 83 80 79
207 194 210 222 213 216 196 154 175 189 162 182 182 142 107 50 41 127 146 157 153 151 151 139 141 138 137 135 133 129 127 127 126 123 123 117 109 105 100 98 96 94 93 91 88 84 81 78 78
209 208 204 215 213 197 194 154 189 192 163 161 186 147 111 45 61 135 150 156 153 151 150 144 141 139 138 136 134 133 132 132 131 130 127 122 113 110 107 105 102 100 97 94 90 85 81 77 76
181 205 207 208 203 192 191 191 203 188 146 140 172 146 86 73 124 141 148 155 152 151 150 145 141 139 138 138 137 136 135 135 135 134 129 121 118 116 113 110 109 107 103 98 93 89 85 81 79
195 200 212 209 200 192 187 185 206 179 149 112 149 144 107 114 127 140 147 153 153 153 153 151 150 146 138 136 136 136 133 132 131 123 119 113 114 118 118 116 114 111 107 102 97 94 89 85 83
208 206 212 210 202 194 175 160 133 173 104 70 4 150 129 131 135 137 142 152 156 158 159 157 157 154 152 148 136 129 124 120 119 113 110 113 119 124 123 137 112 107 105 103 101 97 91 85 86
192 209 209 204 203 189 170 160 119 90 108 85 55 34 71 132 142 140 145 155 162 164 164 161 160 157 155 149 142 142 134 123 132 129 123 151 161 155 157 111 101 108 115 115 115 115 108 122 127
195 210 212 205 205 189 170 163 137 144 126 100 74 68 122 143 153 155 161 166 170 171 168 166 165 160 157 149 156 157 156 158 171 157 162 176 169 156 154 121 131 128 139 175 176 157 189 235 212
199 213 210 207 199 186 166 150 149 158 123 80 60 88 138 152 159 165 169 174 175 174 170 172 169 166 164 160 163 164 166 167 174 176 178 185 187 182 204 194 181 199 207 217 186 216 233 255 272
201 212 205 195 184 186 168 150 146 144 108 88 63 107 146 164 166 171 177 181 179 180 179 178 175 172 174 171 172 177 179 181 183 186 194 200 207 216 219 230 226 230 225 238 248 260 252 255 255
204 194 193 185 172 170 165 175 174 155 128 110 90 100 142 170 177 180 183 187 188 190 189 187 184 184 180 180 181 190 193 196 194 195 204 212 219 223 222 233 233 241 248 244 251 256 260 263 266
194 185 186 183 180 185 197 210 214 193 172 153 108 99 121 174 196 192 196 197 199 200 196 192 191 192 188 191 193 198 203 203 210 208 214 219 229 234 236 242 241 246 246 254 259 262 268 268 266
177 173 178 191 190 187 212 228 223 211 212 226 217 160 138 179 202 210 209 209 206 203 200 196 195 197 197 200 203 207 207 209 213 216 221 222 230 237 240 249 248 248 248 252 258 264 266 269 268
183 191 194 189 189 185 207 228 217 212 229 239 238 231 209 199 213 217 215 211 208 203 201 198 196 202 203 206 207 210 213 214 219 223 226 228 232 236 243 246 250 253 252 249 252 259 259 260 262
185 198 201 188 194 186 208 234 224 218 237 240 239 240 239 231 219 209 213 210 208 207 202 199 201 205 205 207 210 215 217 218 225 225 229 234 239 239 241 248 254 253 249 248 249 254 258 266 267
185 193 197 195 188 196 212 225 219 225 239 243 242 242 242 246 242 212 201 206 202 203 203 199 198 205 204 203 206 206 217 222 224 226 233 240 241 243 245 249 256 257 250 250 248 252 253 263 274
187 190 192 190 181 202 218 227 226 231 237 241 243 244 241 241 238 196 188 191 190 192 195 196 198 196 197 194 202 208 213 214 216 221 239 249 254 253 250 254 259 254 251 255 257 255 257 256 259
178 182 181 171 176 204 222 233 233 228 233 235 236 239 239 235 226 211 194 188 197 191 189 190 193 194 199 204 205 216 215 218 220 205 223 283 280 276 266 263 263 260 261 260 258 252 253 253 235
185 185 177 161 158 191 209 233 232 229 231 234 235 237 240 235 233 222 207 194 191 189 181 178 177 178 181 183 174 167 174 184 194 200 203 343 324 307 290 282 279 273 266 266 265 255 249 256 248
179 181 172 164 168 183 203 234 223 221 225 229 231 231 233 231 228 223 212 201 191 178 165 167 163 159 160 178 194 201 209 215 205 201 181 118 23 355 334 310 296 284 276 272 272 267 262 260 259
160 158 168 181 187 188 204 240 235 209 226 228 228 229 232 232 226 218 212 201 183 168 161 158 152 144 141 158 176 194 201 195 173 179 188 185 94 31 5 341 320 305 295 288 284 279 268 260 261
142 138 125 157 196 224 210 225 249 215 230 232 230 229 232 232 228 222 206 187 175 165 159 157 150 137 132 134 141 160 171 179 186 197 206 207 182 42 18 353 339 327 317 307 299 289 277 269 267
173 160 157 179 203 222 177 223 251 251 244 247 245 237 234 232 227 216 198 187 177 171 166 162 155 144 137 132 127 130 146 169 192 205 219 245 260 339 4 354 344 338 330 321 311 300 298 295 283
184 193 203 194 197 175 181 232 250 271 273 269 266 262 254 241 230 218 203 190 179 173 169 165 160 149 144 138 129 124 131 146 138 131 290 316 342 6 356 349 349 347 343 336 329 326 336 336 330
173 194 329 45 131 200 204 238 270 257 251 250 253 253 251 242 227 215 199 186 177 173 171 167 160 153 149 143 138 130 124 124 123 118 100 61 21 7 357 356 2 5 3 358 359 11 19 28 33
191 159 173 187 187 213 209 228 227 190 224 318 302 285 271 243 220 203 190 180 173 168 164 164 162 155 150 149 142 132 125 116 121 126 112 86 53 24 8 21 26 26 25 25 39 50 48 65 59
159 181 200 196 251 237 216 181 141 247 349 334 335 328 301 247 207 190 180 173 167 162 163 164 161 156 155 154 149 148 136 131 133 124 107 95 79 52 44 47 51 49 46 49 64 68 70 77 74
210 205 198 204 205 236 255 205 127 236 295 305 321 333 313 231 195 183 175 170 170 169 169 169 167 165 161 157 157 152 146 149 148 132 117 109 99 81 70 74 76 69 63 64 75 80 78 80 77